Theta_e
311 311 311 311 311 311 311 310 310 309 309 305 302 304 297 295 292 303 306 307 304 298 292 295 295 295 298 302 301 302 300 299 300 299 300 298 301 301 301 300 300 302 300 300 299 299 296 298 297 300 305 307 308 310 311 313 311 311 307 308 308 321 300 297 299 302 306 308 310 310 310 309 305 305 306 303 300 300 297 296 298 296 298 295 295 295 299
311 311 311 311 311 310 311 310 310 310 309 305 304 299 295 296 295 297 305 307 304 295 288 289 292 295 298 298 296 299 297 297 297 297 299 298 298 298 299 301 303 300 304 302 298 301 294 299 299 299 303 301 310 311 311 312 309 309 307 304 309 302 302 299 294 293 295 300 304 304 308 307 304 302 304 305 304 303 302 301 305 297 297 298 294 291 296
311 311 311 311 311 310 310 310 310 310 310 309 304 296 297 296 298 298 301 305 302 293 295 292 291 293 293 292 292 294 296 299 298 297 296 299 299 298 298 300 301 301 303 302 302 302 299 296 301 300 301 302 306 307 311 311 309 312 315 328 311 305 302 299 292 290 289 289 291 293 296 301 304 305 304 305 304 302 299 295 295 288 299 300 295 295 300
311 311 311 311 311 311 310 310 310 310 310 310 304 299 295 292 285 293 295 299 299 298 300 297 294 292 291 290 292 294 292 296 300 300 299 301 301 300 300 302 302 299 298 295 296 299 302 299 298 298 299 300 303 306 306 308 310 321 333 328 312 304 305 302 299 296 294 297 301 310 309 303 301 303 304 304 305 305 302 298 294 290 293 299 298 300 305
310 310 310 310 310 310 310 310 309 309 309 310 304 300 297 296 289 290 288 295 295 294 296 294 297 292 294 287 293 291 293 295 296 301 295 300 299 298 299 299 296 295 296 295 296 300 298 299 300 299 298 300 302 305 303 306 310 328 327 332 314 306 301 303 302 301 302 306 306 307 308 304 304 303 303 305 305 304 302 297 295 299 296 289 297 307 305
310 310 310 310 310 310 310 310 309 309 310 309 305 294 297 288 293 295 297 289 286 289 291 294 292 294 294 291 295 291 291 292 291 297 299 299 300 295 297 298 296 296 294 295 293 295 293 297 293 298 297 298 301 302 306 304 313 317 314 321 313 308 301 304 304 302 304 305 306 307 307 306 305 305 304 303 304 304 301 301 302 303 296 294 298 304 305
310 310 310 310 309 309 309 309 309 309 308 307 302 293 296 295 294 294 298 290 292 293 293 294 293 292 293 292 292 290 291 291 294 294 294 295 295 297 291 293 294 295 296 294 292 292 290 290 294 293 294 295 296 297 300 304 307 304 308 314 313 306 302 307 305 303 304 304 304 305 304 305 305 304 305 305 304 304 304 303 303 303 302 302 302 304 305
310 310 310 310 309 309 309 309 309 309 307 306 300 298 292 291 291 291 296 295 292 293 294 293 293 290 294 289 291 291 291 290 293 295 293 290 293 298 293 293 294 295 294 294 290 293 294 293 289 294 293 293 297 295 297 299 303 304 302 308 312 305 304 309 305 302 302 304 305 305 304 303 303 305 305 305 305 304 305 304 304 305 302 303 303 303 304
310 310 310 309 309 309 309 309 309 309 307 301 298 297 299 298 299 299 292 288 291 293 292 291 290 289 291 289 291 292 291 290 292 292 296 293 292 294 293 295 294 295 294 293 292 295 295 294 294 296 296 292 298 296 297 301 299 301 302 304 311 306 303 307 305 300 303 305 304 304 305 304 303 303 304 304 304 302 303 302 304 302 301 303 303 300 300
310 310 309 310 309 309 309 309 309 308 307 302 299 295 302 301 304 300 296 287 292 289 292 291 289 286 292 292 291 291 291 293 294 290 295 297 297 296 295 296 294 293 293 292 294 297 296 296 298 299 300 301 301 302 302 303 301 301 301 304 303 303 302 299 299 297 299 303 305 304 304 302 299 300 303 305 306 309 306 305 307 306 305 301 299 297 303
310 310 310 310 309 309 309 309 309 309 306 300 299 297 299 297 295 296 296 287 290 291 290 289 288 291 292 294 292 294 293 293 294 289 289 295 296 298 297 296 293 291 292 296 299 299 300 300 300 302 302 302 302 303 304 305 305 305 303 303 305 306 304 299 302 295 298 302 303 305 301 293 295 305 308 308 305 306 304 304 305 306 305 303 304 304 309
310 310 310 309 309 309 309 309 309 308 307 306 304 300 301 302 302 297 292 286 287 291 289 287 289 291 291 293 292 292 292 292 292 296 292 293 296 297 297 296 296 290 299 303 302 301 303 304 304 303 304 303 304 304 306 304 305 308 308 305 304 303 305 299 302 296 296 302 303 297 292 295 309 309 310 310 309 309 307 307 307 308 310 310 308 308 309
309 310 309 309 309 309 309 309 309 309 308 307 304 299 302 304 299 296 293 289 285 288 287 288 293 293 293 293 292 293 294 295 295 296 295 294 294 296 297 296 295 297 303 302 300 300 296 294 296 298 299 303 304 305 303 303 303 306 307 308 305 302 301 300 298 298 300 298 297 290 292 307 311 309 313 316 312 310 308 305 307 309 308 314 314 314 318
309 309 309 309 309 309 309 309 309 309 308 307 304 302 304 303 298 295 294 289 288 291 291 290 292 291 292 292 293 293 294 293 296 297 294 297 296 296 298 300 300 303 302 302 305 301 294 296 290 293 293 298 299 297 300 302 303 304 306 307 310 306 304 300 296 300 293 294 294 295 304 303 308 310 311 309 308 312 306 300 308 316 318 318 317 317 318
309 309 309 309 309 309 309 309 309 309 309 307 305 304 303 303 303 298 299 294 287 290 292 286 290 291 292 292 293 291 291 292 292 292 296 299 297 298 299 302 304 303 304 304 303 300 295 293 288 287 291 292 289 292 302 300 305 307 307 308 308 310 305 305 297 295 298 293 292 293 293 292 299 310 315 316 315 314 313 311 308 324 321 321 320 319 322
309 309 309 309 309 310 309 310 309 309 309 307 306 304 304 306 306 303 298 294 290 283 289 294 294 293 291 292 293 291 290 291 291 292 292 294 295 298 302 303 305 304 301 300 302 297 295 289 287 287 287 291 296 295 294 300 299 305 307 308 308 308 308 311 300 302 297 296 292 291 291 295 306 312 312 317 316 315 314 308 304 323 324 323 321 323 325
309 310 310 310 310 310 309 309 309 308 308 307 305 303 302 307 305 301 298 296 292 287 295 296 296 295 292 291 293 292 294 290 292 288 287 289 293 296 299 303 304 304 303 299 300 296 292 290 292 291 292 294 292 293 298 297 296 298 305 305 305 305 305 304 302 302 302 300 293 292 299 300 307 313 315 315 319 317 310 297 299 317 326 323 324 324 325
310 310 310 310 310 310 310 310 309 309 308 308 305 303 303 308 308 304 298 295 291 291 295 297 295 292 291 293 291 294 296 295 294 296 292 293 295 295 296 298 297 303 303 295 295 291 290 290 287 289 288 296 297 297 289 297 295 297 298 300 300 301 304 301 298 300 299 301 299 298 300 315 320 318 316 317 318 315 299 292 308 324 324 326 327 326 327
309 310 310 310 310 310 309 309 309 308 308 308 306 304 304 306 308 306 300 296 293 288 295 300 300 296 297 300 296 297 296 295 295 291 290 290 294 298 299 299 300 294 299 293 294 290 290 290 296 294 290 293 296 292 300 296 295 301 299 298 299 300 302 301 302 298 298 298 297 297 303 313 318 316 319 318 313 299 297 315 325 325 324 326 327 327 328
309 309 309 309 309 309 309 308 309 309 309 308 306 302 303 307 308 307 300 294 295 292 295 297 299 296 299 296 294 293 294 295 297 294 291 288 297 296 293 292 299 298 296 297 289 296 291 289 292 297 293 293 295 302 297 298 303 299 299 304 301 303 300 299 298 301 302 302 299 294 288 309 318 319 315 318 309 310 319 322 322 324 324 326 329 331 332
309 309 309 309 309 309 308 308 308 308 309 309 307 303 301 307 309 309 306 301 295 291 293 300 301 300 300 299 300 300 297 294 295 292 295 295 299 295 285 287 293 295 291 293 287 290 292 291 293 293 301 297 300 300 294 297 300 307 306 304 303 310 302 299 301 305 296 297 294 294 305 312 316 316 311 316 321 322 326 320 317 323 324 326 329 331 333
309 309 309 309 309 309 309 309 309 308 309 308 307 305 300 304 308 307 307 306 298 294 296 300 301 299 301 303 303 302 300 299 301 301 296 294 299 296 295 295 296 299 299 298 294 293 295 295 297 294 293 296 302 296 299 294 292 301 307 308 298 310 304 306 299 307 303 301 305 313 318 319 321 321 320 321 322 323 322 322 325 326 328 331 329 329 331
309 309 309 309 309 309 309 308 309 309 308 309 307 304 300 303 305 309 306 300 302 302 303 301 302 303 304 305 306 306 306 306 303 301 300 296 294 296 295 294 294 305 305 305 297 295 294 294 292 298 295 298 296 296 299 299 297 302 299 310 308 312 312 315 311 308 315 315 316 318 318 319 320 321 321 321 321 325 328 329 326 327 327 327 326 327 329
309 309 309 309 309 309 309 309 309 308 308 308 308 305 302 305 306 306 304 302 298 293 297 300 297 295 298 299 303 306 306 306 306 305 306 303 293 293 297 299 300 300 303 305 307 300 298 298 297 299 293 299 301 296 293 294 297 302 301 303 308 312 314 312 307 310 304 298 316 316 317 319 319 319 321 324 325 325 326 324 324 324 324 323 324 325 326
309 309 309 309 309 309 309 309 309 309 309 308 308 308 308 305 307 306 300 293 294 294 288 292 294 299 302 304 305 304 305 306 307 306 305 304 301 295 294 303 302 301 300 305 310 305 303 295 297 297 293 301 303 293 304 296 297 305 298 301 305 305 315 308 309 310 308 307 314 317 320 318 319 318 317 318 321 322 322 322 322 322 322 322 322 323 323
309 309 309 309 309 309 309 309 309 309 308 308 309 305 304 303 307 310 305 302 300 296 289 289 293 302 304 303 301 304 306 306 305 306 305 304 304 303 301 302 302 309 306 304 306 303 301 298 297 297 295 297 306 298 298 303 301 306 302 301 308 310 314 303 309 307 312 315 315 316 317 317 317 318 318 318 317 317 319 320 319 319 318 318 318 318 317
309 309 309 309 309 309 309 309 309 309 309 309 307 307 306 306 308 306 302 301 294 290 293 290 294 299 302 299 303 304 305 305 304 304 303 304 303 304 303 301 299 300 300 301 303 302 301 299 298 295 298 299 307 303 304 302 303 301 301 307 312 310 304 312 309 304 305 306 311 316 308 307 313 316 319 317 317 317 316 316 316 317 316 316 316 316 317
309 309 309 309 309 309 309 309 309 308 309 309 308 307 307 306 307 308 309 305 298 290 291 291 292 296 302 299 304 305 305 306 305 303 302 303 304 303 302 301 301 299 299 298 296 296 296 294 294 303 303 303 301 300 308 308 307 303 303 306 313 307 310 310 305 306 305 314 316 319 317 314 315 315 317 318 318 317 315 313 313 313 314 315 315 314 314
309 309 309 309 309 309 309 309 308 309 309 308 307 306 306 308 309 310 309 310 305 298 296 295 297 296 291 296 304 303 305 305 304 303 302 302 302 302 301 301 300 299 299 299 298 298 298 298 301 299 301 307 300 298 302 297 299 297 305 312 313 315 317 314 313 313 315 318 319 320 317 313 314 316 316 317 318 315 314 315 315 314 314 314 314 314 313
309 309 309 309 309 309 308 308 308 308 308 307 305 301 298 303 311 311 311 308 307 302 293 290 288 292 301 301 300 303 305 306 304 303 302 301 301 301 301 301 300 303 302 299 299 295 299 300 303 303 305 310 300 301 297 300 298 302 310 313 314 315 316 317 317 313 313 320 320 320 319 318 319 317 316 317 318 318 315 315 315 315 315 316 314 314 314
309 309 309 309 309 309 308 308 309 309 308 305 302 295 293 291 302 308 310 307 310 302 296 296 291 297 296 302 303 303 304 305 303 303 304 303 301 301 302 302 302 302 298 299 299 299 303 298 299 301 308 307 305 300 299 298 296 300 308 311 313 313 314 314 317 319 320 319 319 318 319 318 317 314 314 315 315 316 316 317 319 322 317 316 314 314 314
309 309 309 309 309 309 309 309 309 309 306 303 298 296 299 300 305 308 309 309 307 300 295 291 291 292 292 296 303 307 306 306 304 303 303 304 300 300 302 301 300 302 302 305 305 301 299 301 300 301 303 307 306 301 302 300 297 298 307 310 313 314 315 315 317 319 321 321 319 314 313 311 313 310 310 314 314 315 315 315 316 317 320 318 317 316 316
309 309 309 309 309 309 309 310 310 309 306 306 308 308 307 307 307 307 307 307 303 299 301 294 289 292 291 295 301 303 306 304 302 302 299 303 298 300 297 301 301 301 306 303 299 297 304 302 303 301 307 309 303 302 301 298 300 307 309 312 312 313 312 314 316 316 316 316 318 311 309 311 313 314 314 313 313 313 313 313 314 315 316 316 317 318 318
310 310 310 309 310 310 310 310 310 309 309 305 301 303 308 309 308 307 309 308 301 302 301 294 290 289 291 300 294 299 306 300 300 302 297 302 308 300 299 298 300 297 301 298 302 301 304 302 300 303 306 304 308 302 297 302 307 308 310 311 312 311 311 311 312 313 315 315 314 314 314 316 319 320 316 314 314 314 314 313 313 313 314 315 315 314 315
310 309 309 310 310 310 310 310 308 306 302 303 303 307 309 308 309 311 310 305 296 295 295 295 295 289 290 293 289 296 307 303 299 303 300 302 308 299 299 296 300 294 303 305 303 300 301 301 307 301 298 307 302 297 300 303 305 308 309 309 311 312 311 309 309 313 314 315 313 313 316 316 314 313 312 313 314 315 315 313 313 312 311 311 312 311 312
310 310 310 310 310 310 310 310 308 305 304 302 304 314 313 313 313 311 309 309 302 295 293 293 294 290 291 286 287 298 305 301 303 304 304 304 303 305 302 302 296 301 308 301 296 301 299 307 305 297 306 299 296 302 304 307 306 307 308 309 310 309 309 310 311 314 314 314 314 313 314 315 313 312 312 313 313 313 313 314 315 315 313 313 313 314 314
310 310 310 310 310 310 306 306 311 307 305 308 313 314 315 311 309 309 308 307 309 307 297 294 291 291 293 292 297 301 301 294 303 301 304 300 299 302 303 301 297 304 301 298 299 298 303 311 303 297 299 295 299 307 309 310 308 308 308 311 312 314 313 314 315 315 313 313 313 313 313 313 312 311 311 312 313 313 312 311 312 312 312 314 315 313 314
309 310 309 309 307 302 301 304 306 315 317 313 314 308 306 304 300 302 303 299 303 304 299 298 292 294 300 297 290 302 301 299 304 297 299 304 300 299 303 300 300 299 293 298 301 308 306 303 300 298 299 305 308 308 309 311 312 312 311 313 313 313 313 315 315 312 310 309 309 310 311 311 310 311 310 310 312 312 313 314 314 314 314 314 314 316 318
309 311 310 309 304 301 301 306 319 314 310 312 311 302 301 303 300 296 297 301 301 295 300 296 294 297 297 295 297 306 301 298 297 300 295 302 299 294 304 294 302 303 293 295 301 310 297 298 298 298 296 302 304 306 312 312 312 314 313 313 313 314 315 314 315 314 311 309 309 310 310 308 308 309 311 311 311 313 313 314 314 314 315 315 316 317 317
310 305 303 303 302 304 310 314 315 313 311 305 307 301 295 302 295 291 301 293 291 298 301 292 301 299 300 296 296 297 308 301 296 295 297 299 308 296 300 299 302 299 291 292 298 309 298 292 297 297 294 302 303 309 311 311 311 314 315 314 315 314 313 313 314 315 315 312 313 312 313 312 312 311 310 311 311 311 312 313 314 315 315 316 319 317 316
306 304 304 301 304 306 308 311 312 310 305 302 301 300 297 290 299 300 298 292 293 296 303 301 303 300 302 303 302 295 307 309 306 308 303 298 309 307 299 294 305 295 289 290 302 305 301 295 296 295 296 303 305 308 310 311 312 316 316 316 316 315 313 314 315 317 313 313 313 313 313 314 313 313 313 313 313 312 313 314 314 315 315 315 315 316 317
306 303 305 307 307 308 308 308 307 303 305 304 294 289 292 297 300 293 292 289 292 298 300 303 297 299 300 304 303 306 306 312 309 306 303 296 304 300 299 301 303 294 289 300 307 302 299 290 289 293 300 305 308 309 310 310 311 311 313 314 316 315 314 314 313 314 315 314 314 314 314 314 315 315 315 315 314 314 315 315 315 315 316 317 318 317 318
307 308 308 306 308 304 305 295 302 301 290 289 289 287 293 288 292 291 295 296 300 298 298 306 307 311 309 311 306 308 305 310 304 303 301 297 305 304 299 295 296 289 296 306 302 297 293 290 292 297 304 307 310 310 311 312 313 313 314 314 315 314 314 314 314 314 315 315 315 315 315 315 315 315 316 316 315 315 316 318 318 317 317 317 317 317 318
310 312 306 305 299 300 302 286 298 296 290 291 289 286 290 290 293 296 294 296 300 301 304 300 303 302 299 305 303 303 306 307 310 307 302 305 301 297 298 291 294 301 307 299 297 292 294 297 299 302 305 308 311 311 311 313 313 312 313 317 318 316 314 315 315 315 314 315 315 315 316 315 315 316 316 316 315 315 316 317 319 320 319 319 318 318 319
306 300 295 293 291 294 292 286 295 288 285 289 292 292 293 289 293 295 295 301 302 299 304 309 307 304 302 308 308 306 307 302 310 303 297 303 299 300 296 293 301 302 297 292 294 296 297 295 301 305 306 307 309 311 313 315 315 315 315 315 312 312 312 312 313 313 313 314 314 314 314 315 315 315 315 316 316 317 317 316 318 319 319 319 318 318 319
305 295 293 288 286 290 291 288 289 287 293 295 294 295 294 296 297 298 302 305 302 303 303 304 306 306 302 308 302 302 307 306 301 301 303 302 296 292 301 303 302 296 294 295 292 289 292 297 301 303 306 308 309 311 313 314 315 315 315 310 310 312 312 313 313 314 314 314 315 315 315 315 315 314 314 316 316 317 317 318 318 318 318 317 317 318 320
302 305 295 292 289 292 300 290 292 295 298 298 299 299 298 299 302 303 305 306 304 306 306 308 307 305 302 303 305 307 307 305 300 302 305 296 296 298 304 298 292 294 291 289 290 292 295 299 302 305 308 309 310 312 313 313 315 314 314 311 311 310 311 311 312 312 314 315 316 315 315 315 315 315 315 315 315 316 318 317 317 318 319 318 318 319 319
295 303 298 289 287 292 291 298 303 302 304 301 301 304 306 307 305 303 307 308 308 308 306 306 303 305 305 310 306 299 302 304 300 301 304 299 302 298 291 294 293 295 295 293 293 298 300 303 305 307 308 310 311 311 312 312 314 313 313 311 311 311 311 311 312 312 313 314 314 314 314 314 314 314 313 312 312 313 315 316 318 319 319 319 318 317 316
310 296 292 291 297 297 299 303 301 298 301 305 307 306 306 305 303 304 307 309 308 307 309 307 305 305 299 305 302 300 296 303 294 292 301 299 293 289 291 288 291 289 295 298 298 301 302 304 307 307 308 310 310 311 312 313 313 312 313 312 310 311 312 312 312 313 313 313 313 314 314 315 314 313 312 312 312 315 318 318 316 316 317 317 318 317 316
296 294 303 294 302 301 303 306 302 298 302 303 303 304 306 305 303 305 310 309 310 309 309 309 309 303 300 301 292 296 295 300 299 296 297 293 294 295 294 290 292 292 295 300 301 303 305 306 307 307 309 309 311 311 310 311 313 313 313 313 315 314 313 312 312 313 313 314 314 314 315 315 313 314 313 311 312 314 314 317 318 317 316 317 317 317 318
307 297 299 307 301 298 300 295 295 297 299 300 302 303 304 305 305 307 314 312 310 309 309 301 301 298 293 293 291 289 291 304 298 295 294 294 299 296 292 291 294 298 301 304 305 305 306 308 308 308 308 309 310 311 312 312 313 313 314 315 316 317 313 312 312 312 313 314 315 319 313 312 313 314 315 315 314 314 313 314 315 315 316 318 320 316 316
296 293 298 303 305 304 303 303 303 303 305 305 306 307 308 306 307 309 314 313 309 302 299 304 300 295 292 291 294 299 303 299 294 296 293 296 300 295 295 297 299 302 303 303 304 306 308 309 310 311 310 311 312 312 313 313 314 315 316 315 313 313 313 313 313 314 314 314 313 313 314 315 316 315 315 313 314 313 312 311 313 315 314 313 313 315 316
Wind_Speed
20 19 19 18 17 15 15 14 13 13 13 8 8 8 8 8 12 16 22 23 17 10 9 8 9 11 12 15 19 18 18 16 13 17 14 14 12 13 14 15 15 15 13 15 15 15 12 14 13 15 11 14 16 10 14 17 21 18 8 16 14 13 6 6 10 6 10 13 6 19 20 18 14 13 13 11 12 11 8 4 4 3 2 6 3 6 3
20 20 20 19 17 14 14 13 13 12 9 8 7 7 7 9 12 15 13 13 10 8 8 7 8 10 13 16 17 14 16 16 14 14 14 12 10 14 13 15 16 16 16 14 16 13 10 12 13 13 8 8 11 17 18 15 13 16 8 8 14 10 8 6 4 6 6 8 7 6 17 15 11 9 11 14 11 11 10 7 1 6 9 8 7 10 4
20 19 19 17 15 14 13 12 12 11 9 7 6 5 6 9 10 12 12 11 7 9 7 9 9 12 14 14 16 14 12 11 19 19 18 15 14 13 14 16 13 13 14 17 16 17 15 14 16 14 16 13 12 17 20 21 12 14 13 13 13 14 8 11 8 12 13 12 13 9 12 16 9 8 12 15 17 14 10 10 9 7 3 9 6 3 4
19 19 18 17 16 15 12 11 10 10 9 7 5 5 6 6 8 8 8 8 8 8 8 11 11 11 11 13 14 16 16 12 12 16 15 12 12 9 12 13 13 11 17 15 15 17 15 16 11 9 10 9 8 10 18 10 11 14 15 19 11 8 9 14 14 11 10 11 4 2 2 7 13 15 14 11 14 15 11 5 5 9 5 6 5 4 3
20 20 19 17 16 14 12 11 10 9 8 5 5 4 5 4 6 7 9 10 7 8 10 9 8 8 10 5 9 15 15 13 14 11 9 10 12 13 9 10 15 15 17 14 14 12 20 21 17 12 14 16 16 27 25 23 18 24 21 12 9 5 8 15 19 17 10 6 10 8 8 7 13 15 18 16 13 11 14 10 11 6 2 7 5 3 4
21 21 20 19 16 13 12 12 9 10 8 4 3 5 4 4 5 8 6 6 10 14 10 12 14 16 14 10 11 15 14 13 12 14 10 10 9 9 8 6 12 14 15 16 11 14 15 10 13 19 14 20 22 20 13 10 19 21 21 14 11 3 6 11 15 18 18 15 10 9 13 13 9 16 14 18 18 15 14 12 11 6 8 14 8 4 5
21 21 21 19 16 13 12 12 11 10 7 4 3 4 5 7 8 9 9 7 8 11 15 20 17 17 14 9 11 14 14 13 11 8 13 12 9 8 11 10 13 15 13 10 7 13 12 12 15 11 19 17 17 12 24 19 15 20 20 13 3 3 3 2 12 12 16 18 18 17 15 11 12 12 20 16 19 22 19 14 8 10 6 6 9 8 11
22 22 21 20 16 13 13 13 12 10 7 5 4 6 6 6 5 4 5 5 10 12 12 12 14 13 13 10 7 10 13 16 14 11 9 12 11 5 9 13 13 11 10 10 9 13 13 13 16 17 16 19 7 15 10 12 20 20 19 13 3 8 3 8 3 6 14 19 17 19 19 17 14 10 10 19 15 14 17 15 13 10 8 8 7 8 10
22 22 21 20 17 14 12 12 11 10 3 4 5 5 7 6 6 3 6 10 7 7 8 10 10 11 10 8 9 10 12 13 16 17 15 14 13 8 8 9 14 8 10 11 13 13 14 16 17 19 16 15 15 9 11 11 20 16 18 15 5 11 2 4 3 4 1 4 17 20 19 17 19 18 14 9 18 18 17 17 14 11 9 6 6 8 8
22 22 21 19 18 14 13 11 10 8 5 5 4 7 6 5 1 2 2 6 7 8 9 9 9 10 7 5 11 11 12 13 14 14 12 12 11 10 11 7 8 9 9 12 13 15 17 17 18 16 18 16 17 17 20 17 15 16 17 13 14 6 4 6 3 0 1 4 7 16 22 14 16 20 17 9 5 2 3 9 17 19 14 12 8 8 5
22 20 20 19 18 16 16 14 11 10 5 6 4 6 7 6 4 3 3 6 6 8 8 9 9 8 12 11 10 12 13 14 11 7 7 14 12 10 14 8 5 6 10 11 11 14 17 19 20 18 19 20 20 19 21 20 19 17 15 12 14 8 4 5 5 2 2 5 10 7 7 16 17 7 5 9 10 6 6 5 4 6 13 9 9 6 4
21 20 19 18 18 17 16 15 13 10 8 7 4 8 7 7 4 3 3 6 8 8 8 9 11 11 13 13 15 13 13 13 14 7 14 13 15 11 10 12 6 8 7 10 12 11 17 16 15 15 14 17 16 22 23 23 21 15 13 13 14 13 2 4 4 3 2 3 4 6 8 7 1 12 13 13 14 13 13 10 10 6 4 3 3 5 1
20 19 18 18 17 16 15 15 14 12 8 6 4 8 7 5 1 4 4 6 8 7 8 11 12 15 16 16 14 13 12 13 12 14 15 16 16 13 8 9 10 10 9 10 6 10 13 13 17 10 16 13 16 16 21 22 22 20 14 13 11 11 7 3 3 3 1 2 3 7 9 2 4 3 1 3 2 4 6 8 8 6 4 4 4 3 2
18 17 18 18 17 16 16 15 14 11 9 6 7 7 7 6 5 3 3 4 8 8 9 12 14 13 13 14 13 12 12 12 10 11 11 11 16 13 9 9 13 13 13 5 6 7 7 8 8 8 11 13 12 13 13 17 19 18 19 14 6 6 6 3 2 5 6 4 5 7 5 6 4 2 1 0 2 1 2 2 4 8 7 7 4 6 5
17 17 17 17 16 16 16 15 13 12 9 5 6 6 8 7 4 5 1 2 9 10 7 8 8 13 12 11 12 11 9 9 10 8 12 12 9 11 13 11 11 13 11 7 3 3 4 5 5 7 7 4 6 6 11 8 12 13 13 11 7 4 2 1 4 4 8 5 4 4 6 10 4 1 1 2 9 9 9 4 3 7 5 3 5 6 8
17 17 17 16 16 15 14 12 12 10 9 4 5 6 6 6 4 3 3 4 4 8 5 5 9 10 9 11 14 14 9 7 6 7 8 9 12 12 13 11 9 12 6 2 3 3 3 2 4 3 4 4 7 8 7 11 11 11 5 5 9 8 6 2 11 1 10 10 5 6 9 4 2 2 4 2 3 10 7 4 1 2 3 5 6 9 8
17 17 15 15 14 13 12 12 11 9 8 4 5 5 7 6 4 5 4 4 6 10 10 15 15 14 10 11 10 7 4 5 5 6 5 7 10 14 11 12 10 8 8 3 1 3 1 3 3 3 4 5 7 6 12 6 8 10 16 11 10 8 1 4 3 3 2 1 7 9 3 3 6 5 3 3 0 6 7 4 2 3 2 5 7 11 9
17 17 16 15 14 13 13 12 12 10 7 5 6 5 7 4 4 4 3 6 6 9 9 11 12 8 8 7 9 9 8 6 5 2 5 7 8 7 10 9 8 5 7 4 2 2 3 3 5 5 5 3 5 10 5 8 8 5 7 8 8 3 1 2 3 1 4 6 1 3 3 2 1 1 4 6 4 5 5 6 4 1 7 8 10 9 7
17 16 16 15 14 13 12 12 11 10 8 5 6 6 8 8 6 6 6 5 5 8 6 8 11 13 13 12 11 11 9 11 7 7 8 7 1 5 13 11 9 5 4 3 1 4 4 4 4 3 2 1 1 4 7 5 5 8 10 11 9 11 10 3 3 3 2 3 2 2 1 2 1 5 3 1 6 4 4 2 1 6 7 8 8 9 8
17 16 15 14 13 12 12 11 10 9 9 5 3 6 7 8 6 5 6 5 4 11 11 11 9 14 11 12 10 9 9 9 5 4 6 7 3 10 10 3 4 6 4 2 6 4 4 5 5 2 5 3 3 3 6 9 10 7 6 3 3 5 5 4 7 2 0 2 1 2 1 4 2 2 2 4 1 2 3 4 5 5 7 8 9 9 8
16 16 15 15 14 13 12 12 10 10 10 9 5 6 8 4 5 3 6 6 5 8 9 9 13 13 10 11 12 13 12 11 8 6 6 6 2 2 3 4 3 2 2 3 3 3 3 4 6 5 2 3 2 1 3 5 5 2 5 3 3 5 3 5 5 9 6 1 2 1 3 2 2 2 4 1 4 5 2 7 6 6 6 7 8 10 8
17 16 16 15 14 14 13 13 12 11 11 10 9 6 9 6 1 2 4 6 6 9 8 10 12 15 17 16 16 15 16 17 16 12 9 8 3 5 7 10 6 4 1 1 2 3 1 3 3 3 3 2 2 3 2 4 4 4 5 3 1 3 4 1 5 4 2 3 8 13 20 2 7 8 7 7 6 6 6 9 9 8 8 7 10 9 10
17 17 16 16 15 15 14 13 13 12 12 11 8 5 8 8 4 1 2 5 5 8 9 11 11 13 14 17 17 17 16 15 15 13 11 9 8 7 7 8 4 3 2 2 1 3 4 7 5 2 3 2 2 1 2 4 4 4 4 2 4 4 3 1 4 2 2 6 5 13 19 7 10 7 5 8 9 11 11 11 11 11 11 10 10 9 10
17 17 16 16 16 15 14 14 13 12 12 11 8 6 8 6 6 4 6 6 6 8 9 9 8 7 7 11 10 9 11 13 14 13 10 8 9 8 5 7 6 3 2 5 7 3 3 3 5 2 3 1 2 1 1 3 2 5 3 4 3 6 9 6 3 3 8 5 9 13 16 11 12 14 15 13 12 12 11 13 12 12 12 13 11 11 11
17 17 17 16 16 15 15 14 14 13 12 12 10 8 7 7 4 3 5 6 4 4 8 9 10 12 14 14 12 12 11 11 9 10 11 11 12 10 10 3 3 3 4 6 4 2 1 3 4 2 3 2 1 1 1 2 2 3 4 3 4 4 10 9 4 6 1 5 5 13 12 8 12 10 11 13 14 16 16 13 12 13 13 13 11 11 12
17 17 17 16 16 15 15 14 14 13 13 13 12 7 7 8 3 2 4 5 4 4 7 9 11 10 10 11 11 9 11 12 11 14 15 15 14 14 13 9 6 2 3 5 4 2 1 3 4 4 3 2 0 0 2 2 6 5 3 4 2 4 6 3 5 5 6 6 12 14 12 11 15 15 13 11 10 14 15 14 14 15 16 15 14 14 12
18 18 18 17 16 16 15 14 14 14 14 13 9 8 8 7 6 6 6 4 5 5 7 8 8 10 10 16 16 15 14 13 12 13 13 14 15 12 10 9 9 6 4 2 2 2 3 3 3 5 4 2 0 3 2 4 3 3 4 2 1 1 3 2 4 7 5 5 8 9 7 4 8 10 8 9 11 13 15 14 15 14 13 11 14 13 13
19 18 18 18 17 17 16 16 15 13 12 13 11 8 8 8 8 6 5 6 5 5 7 9 10 12 14 19 17 11 9 9 11 13 14 16 16 14 11 10 7 6 4 2 3 4 4 6 5 2 2 3 3 3 2 2 3 4 5 3 2 2 1 1 4 5 5 2 3 6 6 3 6 7 9 8 8 12 15 14 13 12 11 10 10 12 12
19 19 18 18 18 17 16 16 15 15 14 11 8 9 9 9 8 6 7 5 6 5 6 10 10 11 8 9 13 13 13 12 12 12 13 12 13 13 11 9 6 6 6 5 4 4 3 3 3 4 2 2 1 3 2 3 3 3 2 2 0 2 1 4 6 9 9 4 5 2 2 3 7 9 10 11 9 11 14 13 12 11 10 10 11 9 10
21 20 20 18 18 17 17 16 15 15 13 8 7 6 6 2 2 0 1 1 2 0 4 7 9 6 8 10 13 12 12 12 9 10 11 10 10 9 7 8 7 6 4 4 3 5 4 3 3 6 5 6 2 2 2 1 2 2 2 4 4 6 4 3 3 5 6 5 6 5 2 5 6 6 9 10 10 10 11 10 9 10 10 9 10 9 8
22 21 20 20 19 18 17 16 14 13 10 6 4 4 4 3 1 0 2 2 5 2 4 4 9 9 10 8 6 5 9 12 10 7 8 9 9 9 7 6 4 5 4 5 4 3 1 3 5 2 2 2 1 1 2 2 2 2 2 6 5 5 4 4 2 5 6 5 7 8 7 6 3 6 11 10 10 10 9 8 8 9 9 9 9 7 7
23 22 21 21 20 19 19 18 15 11 7 6 5 5 2 4 2 5 7 7 5 6 6 6 7 6 6 6 3 4 8 11 11 7 6 7 8 5 4 4 3 6 4 2 2 2 3 6 7 4 1 3 2 2 3 3 4 4 6 7 4 3 3 4 5 5 2 3 6 10 8 7 6 7 5 6 8 8 9 9 9 8 8 7 8 8 9
23 23 20 19 20 21 19 18 17 12 8 9 12 16 19 23 24 20 8 5 4 5 3 4 5 5 5 6 10 9 8 6 4 2 5 5 5 6 6 5 5 5 6 5 3 2 3 6 4 3 1 3 2 2 2 3 4 4 5 4 4 4 5 6 6 5 6 9 3 7 7 6 7 8 8 8 8 8 8 9 8 7 8 9 9 9 8
23 21 19 19 19 18 18 16 14 11 10 7 7 7 9 17 16 18 8 3 3 3 2 3 4 5 7 5 6 7 7 4 2 4 5 3 0 4 3 4 5 3 4 5 3 3 4 3 2 1 2 3 2 2 3 2 2 4 7 4 4 5 5 6 6 7 6 5 7 8 8 7 4 3 6 9 9 9 9 8 9 11 10 10 10 9 7
21 20 19 19 18 17 18 16 7 6 6 7 8 5 2 6 2 5 6 3 3 3 3 4 3 5 5 2 1 7 5 5 4 4 0 5 7 4 4 4 2 5 1 3 2 4 1 1 3 0 2 1 2 3 2 2 3 4 2 2 1 2 3 5 6 5 5 4 6 9 8 9 11 10 8 7 8 8 11 10 9 9 10 8 7 7 6
21 19 18 17 18 14 7 5 5 4 4 5 6 5 8 8 5 4 5 4 3 3 4 3 3 5 5 5 4 4 5 4 2 2 1 3 4 3 4 3 2 1 2 0 3 1 1 1 1 3 0 2 2 2 3 3 4 3 4 7 6 6 4 3 3 6 7 7 7 8 8 8 9 8 7 8 8 8 7 9 9 9 9 8 6 4 4
21 16 16 16 8 2 3 3 2 6 5 3 2 4 6 5 2 2 3 2 2 1 4 3 5 7 4 5 3 4 4 3 2 2 1 1 1 2 2 2 1 1 2 3 3 2 2 3 2 4 2 2 2 6 5 1 3 2 6 6 5 3 3 4 5 4 5 8 8 5 7 9 6 6 7 8 8 7 7 8 8 7 7 7 5 3 3
22 15 5 3 3 4 3 2 2 1 5 6 5 1 2 2 2 2 2 3 3 4 4 4 7 5 2 2 6 2 3 3 0 2 0 0 1 2 1 3 4 2 3 1 1 2 2 1 1 3 4 2 2 3 4 4 3 1 5 5 6 6 5 4 3 3 4 5 5 5 6 8 8 7 7 8 6 7 6 5 5 5 6 5 4 3 4
14 3 3 3 2 2 4 5 1 3 4 4 3 2 2 2 1 1 3 2 2 3 3 5 5 3 4 5 8 2 4 3 2 1 1 1 2 2 1 0 2 3 1 1 2 3 1 3 3 2 4 0 1 4 5 4 2 3 4 5 6 5 3 6 6 4 3 4 4 5 6 6 6 6 4 5 5 6 6 6 7 7 6 6 6 6 6
4 6 6 6 4 7 9 3 5 2 2 3 2 2 3 2 2 2 1 1 2 3 2 5 3 3 6 8 7 5 3 4 2 1 1 2 2 2 1 2 1 1 2 1 0 1 2 3 3 2 4 2 4 6 6 7 8 5 4 3 3 4 6 6 5 4 2 6 6 6 5 7 5 6 5 4 4 5 6 5 5 6 6 6 6 4 3
5 5 5 5 7 6 7 8 7 4 2 3 2 3 1 1 3 2 1 3 2 2 1 3 1 3 5 5 5 6 1 2 2 1 1 1 1 0 1 2 2 1 2 1 1 2 2 2 1 1 3 4 3 2 3 2 3 5 5 3 3 3 6 5 4 1 4 5 6 7 8 9 8 7 6 6 4 4 5 7 7 6 5 4 5 5 5
3 3 5 7 8 9 9 5 3 3 3 2 1 2 2 2 2 1 2 2 2 0 3 2 4 4 3 3 4 3 2 3 1 2 1 2 0 2 1 1 0 2 1 2 1 1 1 3 3 4 4 4 3 1 3 6 9 9 9 10 6 3 4 5 8 6 6 6 5 5 6 5 4 3 5 6 6 6 7 7 7 5 5 4 5 5 7
15 9 5 3 4 3 3 3 2 2 1 1 1 3 2 2 1 2 2 3 2 2 3 3 4 2 3 0 1 2 2 1 2 1 2 2 1 2 1 1 2 1 2 0 1 1 3 3 3 8 3 3 3 5 6 7 4 5 6 6 8 7 7 7 7 8 7 6 5 5 5 4 5 7 8 7 7 8 8 6 6 6 6 6 6 6 6
7 4 3 2 2 3 3 2 3 2 2 2 2 3 5 5 4 3 5 6 4 1 3 3 3 4 4 3 1 1 2 3 2 1 1 1 1 1 1 1 2 2 1 2 2 3 4 4 6 6 5 5 6 7 6 6 7 6 5 5 4 5 6 7 6 7 6 4 5 8 8 9 9 9 8 8 10 10 9 9 8 8 7 6 6 6 5
3 1 0 1 1 2 1 1 1 2 2 3 4 4 5 7 8 7 7 6 5 8 5 1 1 2 5 2 1 3 1 1 1 2 0 0 0 1 2 1 2 1 1 3 2 2 2 6 5 5 6 6 8 6 4 5 4 4 4 2 7 10 10 9 9 9 9 8 9 9 9 8 9 10 10 10 9 8 8 7 6 6 6 5 4 4 4
2 1 2 3 5 3 2 1 2 3 2 2 3 5 7 8 8 9 7 7 8 8 8 6 5 4 7 3 2 2 2 1 2 1 0 1 1 3 3 2 2 2 3 2 4 6 7 5 5 5 6 6 7 7 7 7 7 7 5 4 7 7 10 10 8 9 9 9 9 9 9 8 8 7 7 6 6 5 4 4 4 4 3 4 4 3 2
2 2 1 1 2 1 1 2 3 2 3 4 7 8 8 9 9 9 7 6 6 6 7 4 2 4 6 4 1 1 0 1 2 1 1 1 2 1 1 1 4 4 3 5 5 5 4 3 3 4 5 6 6 7 9 10 9 10 7 6 7 8 9 10 10 10 9 8 7 7 6 5 4 5 5 4 4 4 4 4 4 3 3 2 1 2 3
3 0 1 2 2 1 3 0 4 7 7 7 8 9 7 5 3 5 6 5 6 6 7 5 3 4 4 0 2 3 5 3 2 1 1 2 0 0 1 3 4 4 4 4 6 5 5 4 3 2 3 6 9 10 9 10 11 11 6 8 8 10 9 10 9 8 7 6 5 4 5 6 6 5 6 6 5 5 5 4 4 3 3 2 3 4 4
3 0 0 1 1 1 3 1 2 6 9 8 4 3 5 7 9 8 7 5 6 8 7 3 2 3 4 4 2 4 3 4 2 2 2 2 3 3 2 3 4 4 5 5 6 5 6 6 6 7 7 9 11 11 11 10 10 10 10 8 9 8 8 8 8 7 7 7 6 5 4 4 4 5 6 5 5 4 3 3 4 4 3 3 4 4 4
1 1 1 1 2 1 1 3 2 6 10 10 12 11 6 5 8 9 6 6 5 5 6 6 3 1 3 3 1 2 2 4 4 2 4 7 5 4 4 5 5 3 4 6 6 6 7 9 7 8 11 11 12 12 11 10 10 10 11 11 9 7 6 7 7 7 6 4 5 5 6 6 6 6 4 5 4 4 5 4 3 3 4 4 4 3 3
2 1 1 3 5 6 6 8 10 9 11 11 11 11 10 8 5 5 1 2 6 6 3 4 4 1 1 2 3 2 2 3 3 6 4 5 4 4 5 6 4 5 5 5 7 9 9 7 8 8 9 10 9 8 7 7 8 8 7 8 7 5 7 10 7 7 7 7 7 7 7 6 5 6 5 5 5 5 6 6 6 6 5 4 4 4 4
1 3 5 6 6 6 5 6 7 6 3 7 7 10 9 9 10 8 5 2 4 7 11 7 4 3 3 4 3 2 3 1 3 5 7 5 4 4 4 4 6 7 7 8 7 5 6 7 8 7 6 6 5 4 3 2 4 4 6 7 9 10 8 6 5 5 5 6 8 8 8 9 8 8 9 10 9 7 7 7 7 5 6 7 8 8 6
Wind_Direction
320 319 320 320 320 322 320 321 319 322 327 330 335 321 305 290 275 289 294 296 307 300 282 269 267 253 250 251 247 254 255 258 278 289 287 282 279 277 267 266 280 269 273 275 272 274 277 280 278 297 269 232 205 216 206 190 191 209 212 191 191 184 207 194 241 286 270 268 234 181 181 185 198 199 198 209 216 216 228 208 192 194 187 222 232 232 216
321 321 321 320 319 317 318 318 315 315 325 317 319 316 296 298 300 297 281 277 273 274 262 269 256 256 262 265 277 283 291 295 289 270 269 269 269 265 273 277 256 277 277 277 276 280 282 272 275 274 296 306 299 209 221 208 205 191 188 215 159 200 193 189 157 231 284 286 287 223 183 186 198 195 189 203 220 216 226 247 210 212 210 207 175 233 245
320 320 319 317 316 312 312 313 311 310 310 311 322 306 305 298 275 256 281 297 268 253 243 259 269 274 278 281 275 274 264 250 251 259 269 276 274 279 269 273 288 278 283 278 276 266 258 290 279 283 289 289 293 303 224 212 231 204 183 209 156 204 167 183 197 194 205 218 216 204 191 192 182 200 189 191 208 214 207 222 229 228 263 220 217 234 226
318 318 317 316 314 312 308 310 307 308 305 303 315 297 301 301 305 307 308 297 311 291 280 260 267 264 277 288 279 269 265 268 321 328 306 298 303 319 340 332 323 342 4 358 335 314 295 263 271 276 293 290 295 301 318 292 257 238 222 195 170 201 175 188 200 201 205 228 257 176 211 172 199 188 198 200 200 211 214 208 217 219 211 224 246 189 243
317 316 316 314 315 313 308 300 306 305 294 299 306 290 270 294 273 304 315 323 311 304 326 329 6 339 335 307 317 310 318 315 304 315 311 317 334 329 343 346 8 352 360 346 313 329 343 341 306 291 304 317 328 335 327 312 294 283 251 192 200 184 203 194 196 203 208 198 228 238 224 220 193 185 192 202 213 207 214 204 225 210 177 272 242 207 188
315 315 314 315 314 312 309 303 294 292 288 273 278 294 279 270 279 295 319 293 300 311 314 329 321 317 313 296 294 290 296 299 296 311 293 311 329 334 323 346 8 348 348 331 327 339 350 348 354 338 357 337 347 328 319 320 311 300 255 192 208 159 188 197 192 206 212 217 241 234 237 239 223 194 186 194 202 220 224 222 225 159 202 231 240 202 241
314 314 313 312 312 308 301 300 296 278 286 277 269 277 264 268 285 282 302 296 306 300 302 305 306 306 305 298 306 295 285 284 283 288 307 305 302 316 303 325 355 346 344 351 323 347 341 334 335 358 325 326 331 316 330 322 358 347 306 195 169 131 190 193 195 199 207 223 229 243 251 255 254 206 192 196 199 203 216 234 225 215 221 211 228 209 217
313 313 312 310 308 302 294 291 288 281 264 241 282 246 268 280 290 306 347 277 287 292 298 299 304 297 306 303 280 292 307 305 302 282 278 295 300 330 315 313 320 328 330 323 325 318 317 327 325 330 331 316 347 310 259 297 329 333 322 289 157 187 210 192 229 218 203 204 220 241 243 249 258 252 216 200 205 206 205 214 234 243 250 234 218 219 242
311 312 311 309 307 303 292 287 282 277 225 277 239 254 249 264 269 264 296 295 295 309 308 304 300 293 297 292 316 330 335 323 326 308 299 286 290 311 303 307 308 324 329 329 319 315 317 318 307 308 314 301 311 304 288 326 305 314 314 314 322 178 211 175 196 223 283 223 204 215 240 245 252 259 259 228 198 204 194 204 199 220 232 234 229 234 239
311 310 311 310 308 303 295 286 279 270 219 255 261 268 265 263 264 64 269 284 295 299 292 287 293 275 275 287 311 308 319 317 324 323 302 310 321 326 307 328 345 322 328 321 309 310 307 300 302 301 293 278 269 266 269 282 277 291 290 289 294 238 151 148 114 114 270 261 283 220 213 233 248 241 241 246 267 290 241 209 193 201 209 222 218 224 212
309 310 308 307 308 302 296 293 285 275 202 247 238 262 276 284 323 304 182 280 289 281 289 281 265 260 286 293 280 295 308 316 312 328 310 306 297 299 304 313 308 281 286 294 310 303 301 300 292 290 284 282 287 280 278 272 269 264 270 289 293 284 155 137 118 148 177 255 265 303 201 209 227 237 246 245 249 252 251 244 218 209 201 210 183 191 206
307 308 309 309 306 303 298 294 287 273 249 253 257 268 266 285 253 219 276 283 285 295 288 284 290 307 304 300 297 297 300 309 317 293 274 284 291 290 286 295 263 279 236 246 275 299 309 293 293 300 276 286 282 287 278 277 271 263 252 249 273 277 196 139 113 140 166 201 264 290 252 241 318 169 198 218 239 248 262 274 279 290 300 268 226 233 221
307 308 306 306 304 302 301 294 290 283 256 241 226 255 266 270 283 273 280 271 273 292 286 284 293 292 290 288 291 296 304 309 305 316 318 305 289 283 260 261 266 253 244 248 266 345 334 317 313 294 294 310 296 281 282 277 278 272 264 255 259 269 211 116 148 120 125 219 170 229 234 258 326 358 123 50 330 243 228 261 277 298 292 62 76 76 134
311 309 308 309 309 307 302 297 293 284 262 245 242 251 266 277 273 267 238 267 275 271 289 295 288 282 291 303 308 309 311 303 312 318 319 322 301 292 300 286 284 278 256 188 63 357 318 336 334 335 336 323 311 295 286 288 276 276 270 271 276 318 318 175 174 154 204 161 216 244 334 312 270 267 268 103 227 46 141 130 5 45 66 88 104 65 27
320 316 314 313 310 307 304 301 296 292 288 241 260 254 261 256 222 236 236 249 277 286 285 280 284 299 323 311 307 312 305 309 321 316 316 288 273 300 304 306 322 322 355 72 57 105 295 330 320 344 330 341 301 304 319 301 300 268 269 263 284 267 212 324 207 184 182 161 205 250 250 244 244 264 22 121 124 124 137 104 109 8 15 71 96 69 63
326 323 322 321 318 315 312 307 300 292 289 288 266 256 251 251 246 261 247 241 303 291 255 242 297 312 303 300 304 302 305 321 318 318 326 330 323 320 302 311 325 301 288 106 142 137 225 243 250 273 259 316 319 310 305 327 327 309 259 307 311 306 293 196 209 172 178 192 202 211 227 230 154 222 191 42 99 101 76 73 74 308 332 38 73 77 66
333 330 328 324 322 320 316 310 305 304 287 228 269 269 274 248 229 200 229 238 209 247 280 293 291 290 298 293 295 294 341 312 335 326 321 318 311 307 308 330 325 326 328 130 138 122 247 243 265 250 291 305 301 313 308 321 319 321 341 333 290 263 83 13 286 155 106 127 203 224 206 231 182 189 133 151 11 95 85 201 227 264 341 20 58 65 53
333 330 329 323 321 318 314 312 308 306 302 248 251 275 277 279 257 111 214 234 262 271 259 255 261 280 278 300 298 298 291 286 289 177 243 289 297 322 324 328 320 330 332 280 150 104 220 253 231 223 235 222 307 318 275 313 308 335 346 327 331 337 350 121 263 256 151 141 328 303 270 155 256 246 133 139 89 79 130 205 192 242 57 44 67 66 63
331 331 329 326 321 318 315 314 311 308 309 297 285 279 258 251 236 210 249 258 234 255 265 295 303 279 274 285 283 291 291 295 300 309 301 304 295 307 299 280 314 323 330 336 5 193 203 230 242 241 242 191 169 271 326 329 306 330 10 7 346 0 354 351 350 275 187 167 186 235 270 308 107 152 345 359 115 162 182 201 208 93 80 68 58 62 45
333 334 333 332 329 325 323 320 316 314 307 304 294 279 284 289 275 186 201 245 235 261 273 276 278 277 282 279 284 283 291 276 267 266 283 280 328 341 317 309 353 323 329 249 226 197 201 222 229 248 222 180 212 305 293 271 281 304 325 358 342 338 343 344 303 289 279 100 210 66 318 277 295 104 71 9 186 215 168 144 83 76 80 69 60 54 45
336 336 335 333 331 329 327 322 317 312 310 304 277 291 292 280 270 193 194 231 264 286 287 255 244 254 270 279 279 287 281 276 289 283 281 278 313 331 292 328 8 22 334 18 329 305 315 237 219 224 272 160 199 139 260 324 304 78 19 22 343 336 284 5 332 5 336 65 173 163 228 276 302 184 150 195 116 192 114 106 89 66 64 73 71 51 40
337 336 334 332 329 326 323 320 317 311 307 301 299 289 280 281 271 120 211 211 233 244 262 284 294 285 279 274 273 267 266 268 265 273 287 291 252 227 260 283 267 160 138 39 330 291 261 323 309 256 231 248 104 204 333 334 295 324 360 360 291 53 27 7 306 322 95 295 322 311 314 114 72 87 112 103 81 79 97 81 78 79 65 66 68 57 47
337 336 335 334 332 328 326 322 321 319 314 312 305 281 280 293 297 339 236 262 241 260 262 268 261 265 267 268 260 255 256 254 259 257 255 265 271 254 269 280 307 94 123 192 153 255 278 300 291 338 328 260 201 309 191 221 283 5 343 174 241 332 16 187 236 300 345 292 257 307 297 291 105 104 102 103 80 67 68 81 84 68 70 65 73 69 60
334 333 333 334 333 331 328 326 325 323 320 316 307 294 288 285 289 301 284 256 265 289 288 253 253 260 267 278 278 263 243 240 238 246 244 231 253 268 259 257 278 151 164 184 180 200 294 282 271 330 285 318 351 162 332 245 219 302 327 353 349 13 19 21 318 332 30 319 355 311 306 351 44 67 61 55 70 72 71 70 76 82 77 73 66 70 68
330 330 330 332 331 330 329 326 326 323 321 315 310 294 293 283 262 227 272 303 301 318 300 307 278 276 280 274 275 266 255 250 255 255 245 232 235 247 257 239 209 209 201 160 167 176 92 310 310 288 296 348 341 324 113 308 234 32 359 340 347 353 12 349 333 332 62 269 284 285 301 22 39 41 53 67 76 81 77 75 76 75 72 69 65 63 62
327 327 328 329 329 330 328 327 325 322 319 320 313 296 289 284 286 197 241 249 260 262 282 291 293 299 290 293 284 297 306 291 259 231 231 239 237 229 241 259 258 152 180 164 133 140 161 256 278 265 257 309 298 333 335 286 280 292 231 266 249 311 6 299 355 329 302 324 281 271 290 33 47 42 44 52 58 74 72 74 75 72 71 65 59 56 56
326 325 325 326 326 326 328 329 327 325 322 318 309 296 281 276 264 250 249 270 318 280 228 255 288 297 316 310 300 290 278 266 263 261 263 254 244 236 225 225 248 260 270 274 147 177 156 221 250 274 268 272 31 273 234 282 274 301 284 264 103 61 268 321 328 279 274 220 259 324 296 333 6 29 27 52 55 70 76 70 66 66 71 69 72 65 59
322 322 321 322 324 324 323 323 324 322 318 317 306 289 278 273 266 254 204 181 192 259 296 297 297 302 310 282 276 278 264 263 267 260 249 246 235 225 229 234 224 232 206 196 243 225 243 250 254 299 278 313 294 273 224 246 309 276 248 252 127 194 234 65 253 232 248 169 260 286 300 358 13 22 23 26 54 65 68 65 69 67 65 70 73 68 57
318 317 317 317 317 316 316 316 316 316 315 315 299 294 280 255 256 243 249 197 190 255 280 282 282 284 285 311 315 301 289 272 268 252 238 238 232 217 213 216 217 216 230 218 232 270 243 238 198 233 213 182 209 284 308 236 224 259 295 345 184 253 190 207 258 281 269 193 239 268 348 28 14 16 34 34 31 62 70 68 66 68 67 66 66 60 70
312 312 311 311 311 311 309 309 308 307 316 314 309 305 298 307 47 0 270 244 130 212 279 300 302 291 302 297 289 301 313 301 279 261 242 251 249 240 209 194 205 217 223 218 204 243 247 284 313 271 217 145 222 317 277 298 286 278 357 335 293 275 242 206 192 254 256 202 197 149 151 70 47 21 38 40 39 48 60 58 59 65 64 62 66 65 59
309 308 307 307 306 305 305 303 301 303 308 294 298 295 293 284 37 298 143 105 122 199 269 271 278 293 285 269 285 317 322 305 275 263 279 259 242 237 220 190 189 189 194 218 233 269 324 250 257 225 55 255 235 256 279 299 303 278 12 330 289 278 277 273 275 276 254 159 126 108 100 92 65 59 49 44 44 43 51 45 50 63 66 59 60 66 67
309 308 307 305 302 300 299 298 292 288 288 279 252 249 268 305 311 287 286 289 300 281 270 286 286 282 304 299 298 276 277 278 283 255 219 235 236 216 257 208 223 167 207 102 61 14 261 262 263 270 211 160 191 269 248 245 266 264 318 312 313 305 320 308 28 331 317 308 152 112 95 79 82 87 89 74 65 59 57 54 46 45 52 65 68 59 55
309 309 306 301 298 297 295 291 287 278 270 275 291 289 278 273 272 271 259 246 224 241 266 275 277 302 280 307 314 315 327 295 263 340 285 221 237 152 230 189 215 210 173 137 147 200 239 243 249 256 67 128 190 234 247 218 237 298 309 338 2 359 5 355 52 15 28 35 32 112 124 129 118 106 97 88 81 74 72 66 56 52 54 55 53 52 51
306 306 301 297 296 292 287 279 274 268 265 263 263 242 232 229 243 247 236 210 254 241 218 267 282 284 287 318 327 296 321 345 346 35 337 224 351 181 217 217 161 241 159 201 169 208 229 260 277 171 156 212 183 250 253 213 76 348 336 8 33 39 27 14 34 49 31 41 67 75 82 73 72 100 112 103 89 79 75 75 66 62 55 52 47 39 33
304 300 298 295 292 287 286 281 277 238 257 255 255 252 189 152 219 178 163 174 250 231 234 232 226 274 293 312 307 284 308 316 359 48 333 321 344 279 152 234 117 201 351 3 269 242 288 286 94 289 244 226 222 214 252 94 39 328 318 69 11 274 10 33 29 23 31 13 47 56 38 70 82 69 61 67 83 95 92 81 75 75 72 64 55 41 29
304 300 296 294 290 288 285 241 197 237 235 239 249 177 165 183 168 160 183 191 213 268 274 266 262 272 298 305 327 320 330 332 335 21 353 302 315 334 339 77 31 322 59 353 257 108 166 30 113 259 87 264 250 236 102 54 82 50 53 72 59 67 69 63 62 48 52 54 53 60 59 45 59 64 55 58 69 73 82 98 104 100 89 80 73 66 50
302 303 302 290 278 197 247 256 183 192 226 238 111 135 179 188 210 223 205 230 218 238 248 279 269 261 259 278 292 261 316 305 1 278 195 142 268 320 342 19 200 296 249 231 226 231 188 101 106 290 271 242 342 53 55 59 109 99 76 69 77 64 72 66 52 51 91 76 60 51 74 83 67 66 72 61 51 58 65 70 70 76 90 101 105 82 68
303 301 284 278 250 293 295 187 231 180 211 271 312 267 122 105 217 194 173 222 204 188 219 222 249 268 248 244 261 271 301 256 179 266 104 154 34 320 122 227 196 229 225 284 236 38 318 307 59 300 71 64 21 31 30 8 3 19 88 93 73 63 50 28 123 113 62 77 77 80 81 79 73 61 61 57 49 47 44 61 73 71 75 78 86 117 146
309 278 214 210 200 279 308 345 40 172 229 279 162 257 214 186 224 250 214 211 174 225 191 219 254 233 237 253 265 235 216 272 293 259 290 52 90 264 266 305 171 173 137 250 225 176 87 81 113 106 85 6 53 11 355 336 343 107 75 75 113 122 84 62 35 33 72 93 114 109 98 87 92 99 97 87 69 54 49 50 60 59 54 54 49 48 49
331 335 337 318 330 332 319 284 159 265 268 255 163 207 274 183 185 269 131 204 258 245 165 249 212 213 223 238 256 293 159 209 234 159 165 167 163 187 224 229 14 216 189 211 0 36 125 84 347 81 110 13 19 356 353 5 342 5 24 40 66 110 115 99 76 322 352 74 60 77 95 103 101 98 93 91 91 90 79 67 58 58 51 55 60 51 52
348 335 317 327 327 314 301 315 301 262 238 241 220 206 139 256 197 265 259 269 266 261 171 260 247 241 233 228 231 255 183 103 260 231 64 230 162 313 180 226 156 132 48 280 261 85 54 90 252 69 64 93 105 23 4 334 305 332 9 4 7 85 93 110 121 93 65 72 65 53 57 58 54 49 61 66 69 78 88 78 66 56 54 52 41 26 22
289 242 274 289 283 274 276 255 215 241 209 199 226 260 217 233 148 98 171 241 231 295 276 208 249 253 267 208 212 223 241 151 188 209 200 270 55 218 192 251 32 306 23 92 73 71 203 77 44 64 57 43 70 35 359 17 17 7 356 347 348 91 117 95 91 84 61 50 45 68 88 90 86 79 73 67 56 46 57 75 76 67 66 58 55 46 29
290 269 231 267 290 308 330 325 341 327 308 296 332 314 329 350 296 314 334 199 227 151 249 253 254 265 240 259 266 171 248 140 203 179 180 196 179 255 217 79 28 346 18 242 350 86 65 67 96 98 72 337 16 50 40 50 47 32 26 335 315 47 58 71 74 72 66 58 42 32 47 61 67 66 68 65 62 56 47 55 73 74 49 44 42 45 43
263 279 284 335 302 293 40 358 312 348 341 331 336 328 335 333 343 330 328 343 13 296 178 246 355 338 330 195 264 32 331 289 246 254 190 180 249 205 176 83 14 36 301 18 13 52 68 75 54 54 45 11 8 37 37 26 23 18 3 340 347 106 104 86 83 86 78 63 59 54 50 48 45 41 45 48 53 54 50 46 46 53 54 53 48 39 29
256 229 123 291 288 275 56 23 336 70 348 326 311 325 341 323 319 327 338 338 330 330 335 165 274 287 309 111 171 207 158 85 168 229 314 51 118 3 34 122 294 325 45 93 59 14 40 61 43 42 20 19 17 16 354 11 356 348 308 278 48 57 56 54 60 68 62 55 55 58 58 54 57 51 51 56 53 50 51 49 37 48 50 50 47 45 30
265 351 345 359 333 332 56 341 321 346 275 237 291 289 298 295 307 310 314 316 321 321 327 338 353 332 303 301 334 24 141 180 51 22 56 248 21 44 51 152 215 76 55 32 52 47 51 59 34 18 2 19 4 352 5 5 357 359 338 87 101 102 92 94 85 75 76 73 69 69 74 70 77 86 79 75 80 83 77 74 61 58 52 51 42 34 14
277 150 132 113 291 289 134 3 342 259 259 273 263 264 250 268 285 284 292 311 305 310 298 324 353 306 314 328 3 283 116 131 51 311 7 11 56 76 209 322 39 19 43 61 69 82 80 40 33 4 347 11 1 5 17 6 353 358 0 50 45 58 65 69 76 83 85 81 81 78 82 84 77 73 82 83 74 70 69 74 80 78 66 64 33 14 32
273 174 80 18 320 310 356 268 250 269 251 235 265 285 301 277 287 354 350 335 310 311 306 329 332 347 316 60 296 3 43 15 350 127 97 16 350 122 43 34 45 41 36 49 57 64 92 92 88 67 19 12 20 21 15 358 6 3 354 56 49 52 53 53 54 57 64 74 81 80 77 74 67 61 65 71 74 64 56 44 34 35 47 49 42 42 48
252 112 149 218 241 118 274 254 256 300 310 304 266 273 320 345 7 354 351 330 336 327 324 310 356 17 302 277 15 20 30 341 18 351 325 14 53 30 43 46 28 49 26 37 63 51 60 59 48 44 30 23 20 17 14 11 17 19 358 13 47 55 47 56 63 62 60 56 53 61 64 70 75 71 64 51 46 41 54 67 54 43 31 35 41 33 26
290 298 187 9 347 41 299 211 250 341 339 344 352 353 3 39 13 326 341 334 324 303 325 295 163 177 329 359 25 14 47 353 11 353 24 34 32 32 45 59 34 48 56 38 47 39 44 48 38 27 27 23 21 25 16 8 18 11 4 360 350 20 63 71 60 56 49 51 53 49 45 46 48 53 56 58 52 48 40 34 34 41 33 28 26 30 44
234 232 353 30 27 10 345 18 14 4 358 354 347 343 341 335 350 321 234 291 340 319 295 13 20 48 315 17 16 24 349 329 28 29 35 24 5 40 39 48 34 32 41 36 48 47 42 37 36 33 34 33 29 27 20 12 24 25 9 326 337 355 36 43 41 46 38 30 29 41 47 52 51 52 41 33 32 27 27 23 21 27 25 7 349 350 11
312 2 350 17 14 16 6 30 43 25 303 315 325 332 330 346 346 338 329 232 301 20 29 5 1 1 23 32 10 200 249 336 44 16 47 42 356 33 46 36 49 53 55 58 50 37 41 41 39 37 37 43 29 14 25 347 19 358 336 0 29 32 40 30 27 42 52 47 38 32 39 37 32 34 38 33 21 17 19 11 2 13 22 23 27 37 52